This is the latest recevied weather packets stored in our database for station/object CE2KVL-1. If no packets are shown the sender has not sent any weather packets the latest 10 day(s).
| Time | Temp. | Humidity | Pressure | Rain* | Wind** | Luminosity | Snow |
|---|---|---|---|---|---|---|---|
| 1777988283 | 17.22° C | 51% | 1018.3 hPa | - | - | - | - |
| 1777987982 | 16.67° C | 51% | 1018.7 hPa | - | - | - | - |
| 1777987683 | 16.67° C | 52% | 1018.9 hPa | - | - | - | - |
| 1777987383 | 16.67° C | 52% | 1018.9 hPa | - | - | - | - |
| 1777987082 | 16.67° C | 53% | 1019 hPa | - | - | - | - |
| 1777986783 | 16.11° C | 53% | 1019.3 hPa | - | - | - | - |
| 1777984683 | 15.56° C | 53% | 1020 hPa | - | - | - | - |
| 1777984383 | 15.56° C | 52% | 1019.9 hPa | - | - | - | - |
| 1777984083 | 15.56° C | 52% | 1020.1 hPa | - | - | - | - |
| 1777981082 | 15.56° C | 49% | 1020.6 hPa | - | - | - | - |
| 1777980783 | 15.56° C | 48% | 1020.4 hPa | - | - | - | - |
| 1777980483 | 15.56° C | 49% | 1020.2 hPa | - | - | - | - |
| 1777979283 | 15° C | 53% | 1020.3 hPa | - | - | - | - |
| 1777978682 | 15° C | 53% | 1020.6 hPa | - | - | - | - |
| 1777977183 | 15° C | 52% | 1020.2 hPa | - | - | - | - |
| 1777976883 | 15° C | 53% | 1020 hPa | - | - | - | - |
| 1777976583 | 15° C | 53% | 1020.2 hPa | - | - | - | - |
| 1777976282 | 15° C | 53% | 1019.8 hPa | - | - | - | - |
| 1777975983 | 15° C | 54% | 1020 hPa | - | - | - | - |
| 1777975683 | 15° C | 54% | 1019.6 hPa | - | - | - | - |
| 1777975382 | 14.44° C | 54% | 1019.8 hPa | - | - | - | - |
| 1777975082 | 14.44° C | 53% | 1019.8 hPa | - | - | - | - |
| 1777974783 | 15° C | 52% | 1019.8 hPa | - | - | - | - |
| 1777973883 | 15° C | 51% | 1019.5 hPa | - | - | - | - |
| 1777973583 | 15° C | 49% | 1019.1 hPa | - | - | - | - |
* Rain since midnight (hover to see other rain measurements)
** Current wind speed in m/s (hover to see current wind gust speed)